Location: Puketoi
(40.5833°S, 176.0167°E)
Time: 00:57:49
(UTC+00:00)

COSMOS 2455 - Pass Details

Date: 05 October 2023
Orbit: 902 x 907 km, 67.1° (Epoch: 03 December)

Event Time Altitude Azimuth Distance (km) Brightness Sun altitude
Exits shadow 11:25:04 15° 229° (SW) 2,282 5.3 -43.8°
Maximum altitude 11:26:00 15° 219° (SW) 2,255 5.3 -43.8°
Drops below altitude 10° 11:29:25 10° 184° (S) 2,616 5.8 -44.0°
Sets 11:33:11 0° 161° (SSE) 3,562 6.6 -44.1°
